一网星座-0291星 (ONEWEB-0291 )

导读

ONEWEB-0291是英国发射的低轨通信卫星,隶属于OneWeb低轨卫星互联网星座系统,于2021年8月21日发射入轨,旨在为全球尤其是偏远地区提供高速宽带互联网服务,是OneWeb打造全球卫星通信网络的重要组成部分,推动全球网络覆盖与互联互通建设。

基本信息
目录编号:
49081
目录名称:
ONEWEB-0291
国际标识:
2021-075G
轨道中心:
EARTH
卫星名称:
一网星座-0291星
卫星全名:
一网星座-0291星 (ONEWEB-0291 )
卫星状态:
在轨 (已飞行1765 天)
发射日期:
2021-08-21 UTC
国别 :
英国 (GB)
星等 :
--
轨道信息
数据来源 国际轨道数据
星历时间: 2026-06-20T14:38:24+0800
1天前
查看轨道信息
半长轴: 7571.85km
偏心率: 0.0002221
轨道倾角: 87.913°
近地点辐角 92.352°
升交点赤经 5.248°
平近点角 267.787°
近地点: 1192.031km
远地点: 1195.395km
周期: 109.286分钟
每日圈数: 13.176492
详细信息
平衡模式:
三轴稳定
覆盖范围:
全球
运营商:
一网卫星公司
运营商所在国:
英国
制造商(研发单位):
一网卫星公司
制造商所在国:
英国
使用方式:
暂无
卫星简介
OneWeb卫星网络由648颗重约125公斤的微型卫星组成,运行在1200公里的轨道上。 每颗卫星都能够提供至少每秒8千兆位的吞吐量,以使用其高吞吐量的Ku频段有效载荷为家庭和移动平台提供互联网接入。该卫星仍在工作。
2D轨道图
3D轨道图
轨道高度分析图
轨道倾角分析图
轨道综合分析图
查看轨道综合分析图